Location: Unspecified
(49.2170°N, 0.0000°E)
Time: 17:38:04
(UTC+00:00)

Envisat - Pass Details

Date: 25 November 2020
Orbit: 764 x 766 km, 98.1° (Epoch: 20 January)

Event Time Altitude Azimuth Distance (km) Brightness Sun altitude
Rises 16:58:39 0° 167° (SSE) 3,220 6.4 -8.2°
Reaches altitude 10° 17:00:57 10° 169° (S) 2,299 5.6 -8.5°
Maximum altitude 17:06:02 79° 256° (WSW) 786 3.2 -9.3°
Drops below altitude 10° 17:11:09 10° 344° (NNW) 2,316 5.5 -10.1°
Sets 17:13:28 0° 346° (NNW) 3,247 6.2 -10.4°
